[[{"header":{"parameterUnit":"m.s-1","parameterCategory":1,"la1":30.2991,"la2":30.254,"lo1":-89.0895,"lo2":-89.0444,"dy":0.0017,"dx":0.0017,"nx":28,"ny":28,"refTime":"2024-08-15T03:00:00:Z","depth":0,"parameterNumber":2,"parameterNumberName":"U-component_of_WINDS"},"data":[0,0,0,0,0,0,0,0,0,0,0,0,0,0,0,0,0,0,0,0,0,0,0,0,0,0,0,0,0,0,0,0,0,0,0,0,0,0,0,0,0,0,0,0,0,0,0,0,0,0,0,0,0,0,0,0,0,0,-3.0164,-3.0165,0,-3.0181,-3.0181,-3.0181,-3.0144,-3.0143,-3.0141,-3.014,-3.0156,-3.0157,-3.0159,0,0,0,0,0,0,0,0,0,0,0,0,0,-3.0101,-3.0102,-3.0164,-3.0165,-3.0165,-3.0181,-3.0181,-3.0181,-3.0144,-3.0143,-3.0141,-3.014,-3.0155,-3.0157,-3.0159,0,0,0,0,0,0,0,0,0,0,0,0,0,-3.0124,-3.0102,-3.0164,-3.0148,-3.0147,-3.0181,-3.0181,-3.0181,-3.0144,-3.0143,-3.0141,-3.0139,-3.0155,-3.0157,-3.0159,-3.0208,0,0,-3.0166,-3.0167,0,0,0,0,0,0,0,0,-3.0122,-3.0126,-3.015,-3.0149,-3.0148,-3.0158,-3.0164,-3.019,-3.0145,-3.0145,-3.014,-3.0138,-3.0158,-3.016,-3.0167,-3.0209,-3.021,-3.0166,-3.0167,-3.0168,-3.0169,0,0,0,0,0,0,0,-3.0121,-3.0125,-3.0171,-3.0151,-3.0149,-3.014,-3.0141,-3.0169,-3.0161,-3.0145,-3.0142,-3.0145,-3.0157,-3.0165,-3.0167,-3.021,-3.0166,-3.0168,-3.0169,-3.017,-3.0294,-3.0296,0,0,0,0,0,0,-3.0121,-3.0124,-3.017,-3.0171,-3.0131,-3.0143,-3.0144,-3.0157,-3.0161,-3.016,-3.0146,-3.0143,-3.0162,-3.0164,-3.0167,-3.0225,-3.0168,-3.0171,-3.0172,-3.0292,-3.0294,-3.0296,0,0,0,0,0,0,-3.012,-3.0126,-3.017,-3.0147,-3.0152,-3.0146,-3.016,-3.0158,-3.0166,-3.0162,-3.016,-3.0156,-3.016,-3.0164,-3.0198,-3.0225,-3.0172,-3.0174,-3.029,-3.0293,-3.0295,-3.0341,0,0,0,0,0,0,-3.0119,-3.0126,-3.0145,-3.0148,-3.0153,-3.0201,-3.0162,-3.016,-3.017,-3.0166,-3.017,-3.0169,-3.0159,-3.0195,-3.0201,-3.0227,-3.0175,-3.0287,-3.0291,-3.0294,-3.0337,-3.0345,-3.0352,0,0,0,0,0,-3.0116,-3.0156,-3.0146,-3.0151,-3.0177,-3.0203,-3.0206,-3.0194,-3.0172,-3.0191,-3.0189,-3.0169,-3.0221,-3.0199,-3.0205,-3.0232,-3.0285,-3.029,-3.0294,-3.0333,-3.0343,-3.0351,0,0,0,0,0,0,-3.0156,-3.0157,-3.0145,-3.0187,-3.0195,-3.0196,-3.0219,-3.0204,-3.0218,-3.0214,-3.0198,-3.0199,-3.0237,-3.0238,-3.0213,-3.028,-3.025,-3.0255,-3.0278,-3.0287,-3.0294,-3.0292,-3.0177,0,0,0,0,0,-3.017,-3.0191,-3.019,-3.0228,-3.0233,-3.0226,-3.0236,-3.0227,-3.0234,-3.0237,-3.0237,-3.0245,-3.0263,-3.0275,-3.0292,-3.0337,-3.0337,-3.0359,-3.0366,-3.0373,-3.0377,-3.0401,-3.041,-3.031,-3.031,-3.031,0,0,-3.0198,-3.0201,-3.0215,-3.0236,-3.0241,-3.0263,-3.0229,-3.0253,-3.0269,-3.0241,-3.0273,-3.0274,-3.0281,-3.0322,-3.0339,-3.0324,-3.0405,-3.0378,-3.0383,-3.0384,-3.0406,-3.0416,-3.0424,-3.0313,-3.0313,-3.0312,0,0,-3.0261,-3.0266,-3.0297,-3.0303,-3.0312,-3.0307,-3.0315,-3.0318,-3.0318,-3.035,-3.0329,-3.0348,-3.038,-3.0386,-3.0393,-3.046,-3.0442,-3.0466,-3.0504,-3.0527,-3.0535,-3.0542,-3.0564,-3.0573,-3.0471,-3.0471,-3.0471,0,-3.0295,-3.0327,-3.0315,-3.0341,-3.0351,-3.0327,-3.0358,-3.0365,-3.0378,-3.0385,-3.0368,-3.0407,-3.0411,-3.0452,-3.0468,-3.0475,-3.0483,-3.0464,-3.0535,-3.0541,-3.0548,-3.0569,-3.0578,-3.0473,-3.0473,-3.0473,-3.0473,0,-3.0368,-3.0392,-3.0416,-3.043,-3.0442,-3.0471,-3.0463,-3.0477,-3.0466,-3.0463,-3.0497,-3.05,-3.0517,-3.0526,-3.0516,-3.0566,-3.0556,-3.0537,-3.0506,-3.056,-3.058,-3.0588,-3.0477,-3.0476,-3.0475,-3.0475,0,0,-3.0455,-3.0463,-3.0472,-3.0477,-3.0485,-3.0503,-3.0531,-3.0548,-3.0559,-3.057,-3.0592,-3.062,-3.0603,-3.0611,-3.0602,-3.0623,-3.0674,-3.0601,-3.0601,-3.0613,-3.0728,-3.0741,-3.0751,-3.0663,-3.0664,-3.0666,-3.0727,0,-3.0516,-3.0564,-3.0554,-3.0601,-3.0622,-3.06,-3.0624,-3.0632,-3.063,-3.0647,-3.0645,-3.0665,-3.0641,-3.0646,-3.0665,-3.0663,-3.0696,-3.0659,-3.0683,-3.0684,-3.068,-3.0761,-3.0775,-3.0833,-3.0735,-3.0736,-3.0737,0,-3.0594,-3.0607,-3.0656,-3.0661,-3.0669,-3.0691,-3.0706,-3.0723,-3.0731,-3.0728,-3.0738,-3.0725,-3.0752,-3.0722,-3.0759,-3.0734,-3.0743,-3.0744,-3.0746,-3.0747,-3.0713,-3.0763,-3.0851,-3.0859,-3.0749,-3.0748,-3.0747,0,-3.0651,-3.0682,-3.0715,-3.0721,-3.0727,-3.0743,-3.0747,-3.0753,-3.0764,-3.0777,-3.0783,-3.0799,-3.0808,-3.082,-3.0812,-3.0791,-3.085,-3.0819,-3.0848,-3.0848,-3.086,-3.0859,-3.095,-3.0868,-3.0868,-3.0868,-3.0868,0,-3.072,-3.075,-3.074,-3.0761,-3.0794,-3.0783,-3.0816,-3.0817,-3.0823,-3.0843,-3.0826,-3.0844,-3.0832,-3.085,-3.0844,-3.0875,-3.0879,-3.0878,-3.0875,-3.0878,-3.0878,-3.0883,-3.0878,-3.087,-3.087,-3.0869,-3.0869,0,-3.0788,-3.0783,-3.0818,-3.0822,-3.0823,-3.0848,-3.0851,-3.0869,-3.0867,-3.0892,-3.0897,-3.0893,-3.0913,-3.0906,-3.0928,-3.0924,-3.0963,-3.0956,-3.096,-3.0958,-3.0987,-3.0984,-3.1082,-3.1094,-3.1007,-3.1007,-3.1008,0,-3.0832,-3.0855,-3.0861,-3.0874,-3.0878,-3.0898,-3.0909,-3.0899,-3.0911,-3.0923,-3.094,-3.0959,-3.0973,-3.1006,-3.1005,-3.1021,-3.1014,-3.1047,-3.1016,-3.1019,-3.1013,-3.1011,-3.1013,-3.1053,-3.1054,-3.1055,-3.1056,0,-3.091,-3.0906,-3.0923,-3.0939,-3.0953,-3.0965,-3.0975,-3.0986,-3.0977,-3.0991,-3.1012,-3.1023,-3.1045,-3.1064,-3.1079,-3.1082,-3.1067,-3.1066,-3.1073,-3.1076,-3.1077,-3.1076,-3.0976,-3.1063,-3.1062,-3.1062,-3.1062,-3.1061,-3.0966,-3.0986,-3.0993,-3.1012,-3.1019,-3.103,-3.1047,-3.1047,-3.1064,-3.1082,-3.1075,-3.1099,-3.1106,-3.1125,-3.113,-3.1148,-3.1135,-3.1146,-3.1148,-3.1151,-3.1154,-3.1075,-3.1151,-3.1151,-3.115,-3.115,-3.115,0,-3.1042,-3.1046,-3.1064,-3.1079,-3.1095,-3.108,-3.1091,-3.1104,-3.1126,-3.1134,-3.1149,-3.1172,-3.1191,-3.1191,-3.1208,-3.1222,-3.1216,-3.1227,-3.1225,-3.1226,-3.1165,-3.1157,-3.1232,-3.1232,-3.1232,-3.1232,-3.1232,-3.1232,-3.1083,-3.1115,-3.1113,-3.1148,-3.1151,-3.1174,-3.1182,-3.1191,-3.1198,-3.1225,-3.124,-3.124,-3.1246,-3.1263,-3.1279,-3.1278,-3.1285,-3.1298,-3.1295,-3.1238,-3.123,-3.1222,-3.1214,-3.13,-3.13,-3.1354,-3.1355,-3.1355]},{"header":{"parameterUnit":"m.s-1","parameterCategory":1,"la1":30.2991,"la2":30.254,"lo1":-89.0895,"lo2":-89.0444,"dy":0.0017,"dx":0.0017,"nx":28,"ny":28,"refTime":"2024-08-15T03:00:00:Z","depth":0,"parameterNumber":3,"parameterNumberName":"V-component_of_WINDS"},"data":[0,0,0,0,0,0,0,0,0,0,0,0,0,0,0,0,0,0,0,0,0,0,0,0,0,0,0,0,0,0,0,0,0,0,0,0,0,0,0,0,0,0,0,0,0,0,0,0,0,0,0,0,0,0,0,0,0,0,4.5139,4.5139,0,4.5192,4.5193,4.5194,4.5195,4.5194,4.5194,4.5193,4.5244,4.5246,4.5248,0,0,0,0,0,0,0,0,0,0,0,0,0,4.5034,4.5036,4.5139,4.5139,4.514,4.5192,4.5193,4.5194,4.5195,4.5194,4.5194,4.5193,4.5243,4.5246,4.5248,0,0,0,0,0,0,0,0,0,0,0,0,0,4.5083,4.5037,4.5139,4.5147,4.5148,4.5192,4.5193,4.5194,4.5195,4.5194,4.5193,4.5192,4.5243,4.5246,4.5248,4.5286,0,0,4.5257,4.5259,0,0,0,0,0,0,0,0,4.508,4.5087,4.5145,4.5147,4.5148,4.5186,4.5175,4.5225,4.5196,4.5177,4.5193,4.5192,4.5225,4.523,4.5242,4.5289,4.5291,4.5258,4.5259,4.5261,4.5262,0,0,0,0,0,0,0,4.5077,4.5084,4.516,4.5146,4.5148,4.5147,4.5153,4.5184,4.5206,4.5179,4.5179,4.5186,4.5226,4.5239,4.5243,4.5291,4.5258,4.526,4.5262,4.5263,4.5372,4.5373,0,0,0,0,0,0,4.5072,4.5081,4.5158,4.5161,4.5111,4.515,4.5156,4.5175,4.5206,4.521,4.5186,4.5186,4.5234,4.5239,4.5245,4.5291,4.5261,4.5264,4.5265,4.5371,4.5373,4.5374,0,0,0,0,0,0,4.507,4.5079,4.5156,4.5122,4.5131,4.5153,4.5173,4.5176,4.5189,4.5212,4.5215,4.5196,4.5234,4.5241,4.5276,4.5293,4.5265,4.5268,4.537,4.5372,4.5373,4.5384,0,0,0,0,0,0,4.5067,4.5078,4.5093,4.5122,4.5133,4.5187,4.5174,4.5178,4.5195,4.5194,4.5221,4.5225,4.5234,4.5272,4.5279,4.5296,4.527,4.5368,4.5371,4.5373,4.5382,4.5386,4.5389,0,0,0,0,0,4.5063,4.5093,4.5094,4.5103,4.5153,4.5188,4.5195,4.5205,4.5196,4.5211,4.5226,4.5224,4.529,4.5275,4.5284,4.5302,4.5367,4.537,4.5373,4.538,4.5385,4.5389,0,0,0,0,0,0,4.5064,4.5097,4.5098,4.5139,4.5161,4.5189,4.5208,4.521,4.5234,4.5232,4.5243,4.5249,4.5284,4.5297,4.528,4.534,4.5328,4.5332,4.5331,4.5335,4.5338,4.5334,4.5272,0,0,0,0,0,4.5069,4.5096,4.5123,4.5156,4.5168,4.5186,4.5202,4.5208,4.5231,4.524,4.5257,4.5278,4.5304,4.532,4.5345,4.5384,4.539,4.5401,4.5404,4.5407,4.541,4.5432,4.5437,4.5382,4.5382,4.5382,0,0,4.5079,4.5101,4.5117,4.5157,4.5175,4.5202,4.5194,4.5222,4.5242,4.5244,4.5279,4.5292,4.5317,4.5355,4.5372,4.5366,4.5427,4.541,4.5412,4.5414,4.5435,4.544,4.5445,4.5384,4.5384,4.5383,0,0,4.5112,4.5131,4.5161,4.518,4.5208,4.522,4.5227,4.5255,4.5265,4.53,4.5302,4.5326,4.537,4.5387,4.5402,4.5443,4.5442,4.5451,4.5468,4.5489,4.5493,4.5497,4.5511,4.5516,4.5454,4.5454,4.5454,0,4.5121,4.5163,4.5176,4.5205,4.5223,4.5227,4.5257,4.5274,4.5308,4.532,4.5313,4.5369,4.5386,4.5428,4.5438,4.545,4.5458,4.5447,4.5492,4.5495,4.5499,4.5513,4.5518,4.5455,4.5455,4.5455,4.5455,0,4.5172,4.5201,4.5222,4.5257,4.5276,4.5306,4.5322,4.5341,4.5346,4.5359,4.5395,4.5416,4.5445,4.5456,4.546,4.5498,4.5494,4.5489,4.5476,4.5505,4.5518,4.5523,4.5456,4.5456,4.5456,4.5455,0,0,4.5205,4.5248,4.5255,4.5271,4.5303,4.5325,4.5355,4.5385,4.5401,4.5424,4.5449,4.5487,4.5483,4.55,4.5507,4.5526,4.5556,4.5519,4.5519,4.5524,4.5599,4.5602,4.5608,4.5557,4.5558,4.5559,4.5597,0,4.524,4.5295,4.5308,4.5353,4.538,4.5386,4.5412,4.5434,4.5447,4.5471,4.5485,4.5512,4.5505,4.5515,4.5534,4.5549,4.5571,4.5546,4.5578,4.558,4.5571,4.5615,4.5617,4.5652,4.5602,4.5603,4.5604,0,4.5289,4.5315,4.5364,4.5394,4.5406,4.5429,4.5458,4.5481,4.5506,4.5514,4.5534,4.5539,4.5569,4.5556,4.5598,4.558,4.5595,4.5604,4.5606,4.5608,4.5592,4.5617,4.5664,4.5669,4.5612,4.5611,4.5611,0,4.5307,4.5355,4.5391,4.5404,4.544,4.5456,4.5471,4.5495,4.5513,4.5538,4.555,4.5578,4.5593,4.5614,4.5626,4.5616,4.5667,4.5654,4.5673,4.5673,4.5683,4.5682,4.5731,4.5693,4.5693,4.5693,4.5693,0,4.5345,4.5374,4.54,4.5421,4.5455,4.547,4.5502,4.5517,4.5539,4.5563,4.5569,4.5592,4.5608,4.5632,4.5642,4.5674,4.5681,4.5688,4.569,4.5687,4.5686,4.5695,4.5693,4.5695,4.5694,4.5694,4.5694,0,4.537,4.5389,4.5428,4.5459,4.5467,4.549,4.5516,4.5537,4.5551,4.5582,4.559,4.5611,4.564,4.5656,4.5691,4.5698,4.5735,4.5736,4.5727,4.5727,4.5745,4.5743,4.5801,4.5809,4.5767,4.5768,4.5768,0,4.5392,4.5416,4.545,4.5467,4.5483,4.5511,4.553,4.5546,4.5564,4.5596,4.5613,4.5643,4.5667,4.5713,4.5731,4.5759,4.576,4.5779,4.5764,4.576,4.5759,4.5757,4.576,4.5781,4.5781,4.5781,4.5782,0,4.543,4.5438,4.5465,4.5496,4.5519,4.5543,4.5567,4.5581,4.5601,4.5621,4.5652,4.5672,4.5709,4.5738,4.5768,4.5782,4.5785,4.5787,4.5792,4.5788,4.5782,4.5785,4.5733,4.5785,4.5784,4.5784,4.5784,4.5784,4.5454,4.5475,4.5503,4.5533,4.5553,4.5576,4.5598,4.5615,4.5642,4.5674,4.5682,4.5714,4.5739,4.5779,4.5795,4.582,4.5816,4.5824,4.5826,4.5827,4.5828,4.5779,4.5825,4.5825,4.5825,4.5825,4.5825,0,4.5491,4.551,4.5538,4.5572,4.5596,4.5599,4.5626,4.5645,4.5674,4.5698,4.5723,4.5758,4.5787,4.5808,4.5837,4.5853,4.5855,4.586,4.5858,4.5862,4.583,4.5822,4.5858,4.5858,4.5858,4.5858,4.5858,4.5858,4.5513,4.5549,4.5561,4.5607,4.5625,4.5658,4.5673,4.5694,4.5713,4.5753,4.5778,4.5792,4.5815,4.5846,4.5872,4.5877,4.5887,4.5892,4.5898,4.5867,4.5864,4.586,4.5853,4.5895,4.5895,4.5927,4.5927,4.5927]}]]